Craig, CO

12:30 AM MDT on April 24, 2017 (GMT -0600)
Craig-Moffat

Weather History for KCAG - September, 2012

Change the Weather History Date:

Monday, September 17, 2012

  Actual Average Record
Temperature  
Mean Temperature 56 °F 55 °F  
Max Temperature 75 °F 74 °F 88 °F (2000)
Min Temperature 37 °F 36 °F 26 °F (2006)
Degree Days  
Heating Degree Days 9 10  
Month to date heating degree days 98 120  
Since 1 July heating degree days 106 197  
Cooling Degree Days 0 0  
Month to date cooling degree days 2 0  
Year to date cooling degree days 344 140  
Growing Degree Days 10 (Base 50)    
Moisture  
Dew Point 28 °F    
Average Humidity 39    
Maximum Humidity 61    
Minimum Humidity 16    
Precipitation  
Precipitation 0.00 in 0.07 in 0.50 in (2001)
Month to date precipitation 0.90 1.05  
Year to date precipitation 4.14 11.11  
Sea Level Pressure  
Sea Level Pressure 30.03 in    
Wind  
Wind Speed 5 mph (NW)    
Max Wind Speed 16 mph    
Max Gust Speed 31 mph    
Visibility 10 miles    
Events      
T = Trace of Precipitation, MM = Missing Value Source: NWS Daily Summary

Daily Weather History Graph

Daily Weather History Graph

Search for Another Location

Airport or City:

Trip Planner

Search our weather history database for the weather conditions in past years. The results will help you decide how hot, cold, wet, or windy it might be!

Date:

Astronomy

Sep. 17, 2012 Rise Set
Actual Time 6:53 AM MDT 7:14 PM MDT
Civil Twilight 6:25 AM MDT 7:41 PM MDT
Nautical Twilight 5:53 AM MDT 8:13 PM MDT
Astronomical Twilight 5:20 AM MDT 8:46 PM MDT
Moon 8:46 AM MDT (9/17) 7:57 PM MDT (9/17)
Length of Visible Light 13h 15m
Length of Day
12h 21m
Waxing Crescent, 4% of the Moon is Illuminated
Sep 17
Waxing Crescent
Sep 22
First Quarter
Sep 29
Full
Oct 8
Last Quarter
Oct 15
New

Hourly Weather History & Observations

Time (MDT) Temp. Dew Point Humidity Pressure Visibility Wind Dir Wind Speed Gust Speed Precip Events Conditions
12:53 AM 64.0 °F 24.1 °F 22% 29.94 in 10.0 mi NW 8.1 mph - N/A   Scattered Clouds
1:53 AM 59.0 °F 28.9 °F 32% 29.94 in 10.0 mi South 11.5 mph - N/A   Partly Cloudy
2:53 AM 55.0 °F 28.9 °F 37% 29.94 in 10.0 mi NW 3.5 mph - N/A   Clear
3:53 AM 52.0 °F 32.0 °F 47% 29.96 in 10.0 mi South 4.6 mph - N/A   Partly Cloudy
4:53 AM 48.9 °F 35.1 °F 59% 30.01 in 10.0 mi North 4.6 mph - N/A   Clear
5:53 AM 48.2 °F 32.0 °F 54% 30.20 in 10.0 mi WNW 3.5 mph - N/A   Partly Cloudy
6:53 AM 52.0 °F 28.0 °F 40% 30.01 in 10.0 mi SSE 12.7 mph - N/A   Mostly Cloudy
7:53 AM 51.1 °F 30.0 °F 44% 30.05 in 10.0 mi NNW 5.8 mph - N/A   Clear
8:53 AM 55.9 °F 28.9 °F 36% 30.05 in - NE 3.5 mph - N/A   Unknown
9:53 AM 61.0 °F 28.9 °F 30% 30.02 in 10.0 mi Calm Calm - N/A   Clear
10:53 AM 64.9 °F 28.9 °F 26% 30.03 in 10.0 mi WSW 4.6 mph - N/A   Clear
11:53 AM 68.0 °F 28.9 °F 23% 30.00 in 10.0 mi Variable 6.9 mph - N/A   Clear
12:53 PM 71.1 °F 28.9 °F 21% 29.98 in 10.0 mi West 9.2 mph - N/A   Scattered Clouds
1:53 PM 71.1 °F 28.0 °F 20% 29.97 in 10.0 mi WNW 11.5 mph 17.3 mph N/A   Mostly Cloudy
2:53 PM 73.0 °F 27.0 °F 18% 29.98 in 10.0 mi WSW 9.2 mph 19.6 mph N/A   Mostly Cloudy
3:53 PM 73.0 °F 25.0 °F 17% 29.99 in 10.0 mi NW 10.4 mph - N/A   Scattered Clouds
4:53 PM 71.1 °F 24.1 °F 17% 30.01 in 10.0 mi North 8.1 mph - N/A   Clear
5:53 PM 71.1 °F 24.1 °F 17% 30.01 in 10.0 mi NNW 8.1 mph - N/A   Clear
6:53 PM 66.0 °F 21.9 °F 19% 30.03 in 10.0 mi North 5.8 mph - N/A   Clear
7:53 PM 57.9 °F 27.0 °F 31% 30.06 in 10.0 mi Calm Calm - N/A   Clear
8:53 PM 51.1 °F 26.1 °F 38% 30.09 in 10.0 mi Calm Calm - N/A   Clear
9:53 PM 46.9 °F 28.0 °F 48% 30.11 in 10.0 mi Calm Calm - N/A   Clear
10:53 PM 44.1 °F 28.9 °F 55% 30.11 in 10.0 mi Calm Calm - N/A   Clear
11:53 PM 45.0 °F 27.0 °F 49% 30.10 in 10.0 mi Calm Calm - N/A   Clear